User: anonymous   Login
Location: Newark
(44.3248°N, 23.7839°E)
Time: 18:34:18
(UTC+00:00)
Language:

DUCHIFAT 1 - Orbit

View from above orbital plane
View from above orbital plane
View from above satellite
View from above satellite

Ground track
Ground track

The orbit data is extracted from the following two-line orbital elements,

1 40021U 14033M   24112.89856309  .00029765  00000-0  20722-2 0  9990
2 40021  98.0878  93.9301 0011213 294.1025  65.9027 15.05357172535654
Epoch (UTC): 21 April 2024 21:33:55
Eccentricity: 0.0011213
inclination: 98.0878°
perigee height: 542 km
apogee height: 558 km
right ascension of ascending node: 93.9301°
argument of perigee: 294.1025°
revolutions per day: 15.05357172
mean anomaly at epoch: 65.9027°
orbit number at epoch: 53565

The dashed part of the orbit path shows where the satellite is in the earth's shadow,  

DLR